Location: Tel Aviv
(32.0670°N, 34.7670°E)
Time: 11:53:48
(UTC+03:00)

Explorer 11/Cluster Stage 4 - Pass Details

Date: 12 September 2024
Orbit: 464 x 1208 km, 28.8° (Epoch: 06 October)

Event Time Altitude Azimuth Distance (km) Brightness Sun altitude
Rises 07:36:23 0° 232° (SW) 3,708 9.6 14.7°
Reaches altitude 10° 07:39:05 10° 225° (SW) 2,857 9.1 15.2°
Maximum altitude 07:45:44 41° 158° (SSE) 1,614 8.7 16.6°
Drops below altitude 10° 07:53:02 10° 92° (E) 3,140 12.1 18.2°
Sets 07:56:08 0° 85° (E) 4,109 11.8 18.8°
